[[{"header":{"parameterUnit":"m.s-1","parameterCategory":1,"la1":30.2991,"la2":30.254,"lo1":-89.0895,"lo2":-89.0444,"dy":0.0017,"dx":0.0017,"nx":28,"ny":28,"refTime":"2024-08-09T03:00:00:Z","depth":0,"parameterNumber":2,"parameterNumberName":"U-component_of_WINDS"},"data":[0,0,0,0,0,0,0,0,0,0,0,0,0,0,0,0,0,0,0,0,0,0,0,0,0,0,0,0,0,0,0,0,0,0,0,0,0,0,0,0,0,0,0,0,0,0,0,0,0,0,0,0,0,0,0,0,0,0,-0.9161,-0.9162,0,-0.9196,-0.9196,-0.9197,-0.9123,-0.912,-0.9118,-0.9116,-0.9153,-0.9156,-0.9159,0,0,0,0,0,0,0,0,0,0,0,0,0,-0.9033,-0.9036,-0.9161,-0.9162,-0.9162,-0.9196,-0.9196,-0.9197,-0.9123,-0.912,-0.9117,-0.9114,-0.9152,-0.9155,-0.9159,0,0,0,0,0,0,0,0,0,0,0,0,0,-0.9081,-0.9037,-0.9161,-0.913,-0.9127,-0.9196,-0.9196,-0.9197,-0.9124,-0.912,-0.9116,-0.9113,-0.915,-0.9155,-0.916,-0.9262,0,0,-0.9175,-0.9177,0,0,0,0,0,0,0,0,-0.9078,-0.9085,-0.9134,-0.9132,-0.9129,-0.9151,-0.9164,-0.9219,-0.9125,-0.9125,-0.9116,-0.9111,-0.9155,-0.9159,-0.9174,-0.9263,-0.9265,-0.9175,-0.9178,-0.918,-0.9181,0,0,0,0,0,0,0,-0.9075,-0.9083,-0.9175,-0.9135,-0.9132,-0.9114,-0.9117,-0.9174,-0.916,-0.9125,-0.9119,-0.9124,-0.9153,-0.9169,-0.9174,-0.9265,-0.9175,-0.9179,-0.9182,-0.9184,-0.9441,-0.9444,0,0,0,0,0,0,-0.9075,-0.9081,-0.9174,-0.9176,-0.9094,-0.9119,-0.9122,-0.9148,-0.9159,-0.9157,-0.9127,-0.9121,-0.9163,-0.9169,-0.9175,-0.9297,-0.918,-0.9185,-0.9187,-0.9437,-0.9442,-0.9446,0,0,0,0,0,0,-0.9073,-0.9084,-0.9173,-0.9127,-0.9137,-0.9125,-0.9155,-0.915,-0.9166,-0.9161,-0.9158,-0.9147,-0.916,-0.9168,-0.9241,-0.9297,-0.9187,-0.9191,-0.9432,-0.9438,-0.9444,-0.9539,0,0,0,0,0,0,-0.9069,-0.9084,-0.9122,-0.9129,-0.914,-0.9238,-0.9158,-0.9154,-0.9175,-0.9166,-0.9178,-0.9177,-0.9158,-0.9234,-0.9246,-0.9301,-0.9195,-0.9427,-0.9435,-0.9442,-0.9531,-0.9548,-0.9562,0,0,0,0,0,-0.9065,-0.9148,-0.9125,-0.9136,-0.9188,-0.9241,-0.9247,-0.9224,-0.9179,-0.9218,-0.9215,-0.9176,-0.9288,-0.9242,-0.9254,-0.9313,-0.9424,-0.9433,-0.9441,-0.9524,-0.9545,-0.9562,0,0,0,0,0,0,-0.915,-0.9148,-0.9122,-0.921,-0.9226,-0.9228,-0.9277,-0.9246,-0.9275,-0.9267,-0.9236,-0.9239,-0.9318,-0.9322,-0.9271,-0.9412,-0.9348,-0.936,-0.9407,-0.9426,-0.9441,-0.944,-0.9199,0,0,0,0,0,-0.9178,-0.9221,-0.9218,-0.9295,-0.9305,-0.9289,-0.9312,-0.9292,-0.9308,-0.9315,-0.9316,-0.9334,-0.9372,-0.9399,-0.9434,-0.953,-0.9532,-0.9576,-0.9591,-0.9604,-0.9616,-0.9668,-0.9688,-0.9475,-0.9475,-0.9475,0,0,-0.9239,-0.9243,-0.9272,-0.9312,-0.9323,-0.9369,-0.9296,-0.9348,-0.9382,-0.9322,-0.9392,-0.9393,-0.941,-0.9495,-0.9533,-0.9501,-0.9674,-0.9615,-0.9625,-0.963,-0.9679,-0.9699,-0.9717,-0.9481,-0.948,-0.9479,0,0,-0.9372,-0.9379,-0.9445,-0.9456,-0.9472,-0.9461,-0.9477,-0.9484,-0.9483,-0.9551,-0.9508,-0.9548,-0.9615,-0.9629,-0.9646,-0.9783,-0.975,-0.9795,-0.9877,-0.9928,-0.9945,-0.996,-1.0011,-1.003,-0.9806,-0.9806,-0.9806,0,-0.9446,-0.9513,-0.9483,-0.9538,-0.9558,-0.9504,-0.9572,-0.9584,-0.9611,-0.9626,-0.9589,-0.9673,-0.968,-0.9769,-0.9802,-0.9816,-0.9834,-0.9796,-0.9945,-0.9959,-0.9973,-1.0022,-1.0041,-0.9812,-0.9811,-0.9811,-0.981,0,-0.9603,-0.9651,-0.9702,-0.9729,-0.9754,-0.9815,-0.9794,-0.9823,-0.98,-0.9793,-0.9863,-0.987,-0.9907,-0.9925,-0.9903,-1.0011,-0.9991,-0.995,-0.9886,-0.9999,-1.0045,-1.0063,-0.982,-0.9818,-0.9816,-0.9815,0,0,-0.9795,-0.9803,-0.9823,-0.9835,-0.9848,-0.9884,-0.9942,-0.9977,-1.0003,-1.0022,-1.0072,-1.0129,-1.0091,-1.0109,-1.0088,-1.0133,-1.0244,-1.0087,-1.0087,-1.0118,-1.0365,-1.0398,-1.042,-1.022,-1.0223,-1.0226,-1.0364,0,-0.993,-1.003,-1.0004,-1.0104,-1.0148,-1.0097,-1.0147,-1.0161,-1.0156,-1.0192,-1.0185,-1.0228,-1.0173,-1.0184,-1.0226,-1.0222,-1.0294,-1.0211,-1.0268,-1.027,-1.0269,-1.0443,-1.0479,-1.0609,-1.0381,-1.0384,-1.0386,0,-1.0101,-1.0127,-1.0232,-1.0238,-1.0255,-1.0301,-1.0331,-1.0366,-1.038,-1.0373,-1.0393,-1.0363,-1.042,-1.0353,-1.0433,-1.0378,-1.0398,-1.04,-1.0404,-1.0412,-1.0338,-1.0459,-1.0649,-1.0671,-1.0414,-1.0411,-1.0409,0,-1.0235,-1.0295,-1.0366,-1.0377,-1.0385,-1.0419,-1.0423,-1.0434,-1.0456,-1.0482,-1.0496,-1.0528,-1.0547,-1.0572,-1.0552,-1.0504,-1.0636,-1.0567,-1.0633,-1.0634,-1.0667,-1.0666,-1.0867,-1.0674,-1.0674,-1.0674,-1.0673,0,-1.039,-1.0457,-1.0426,-1.047,-1.0543,-1.0511,-1.0585,-1.0583,-1.0593,-1.0636,-1.0592,-1.0634,-1.0602,-1.0641,-1.0625,-1.0695,-1.0702,-1.0699,-1.0695,-1.0706,-1.0707,-1.0722,-1.0714,-1.0679,-1.0678,-1.0677,-1.0676,0,-1.0553,-1.0534,-1.0609,-1.0609,-1.061,-1.0665,-1.0665,-1.0706,-1.0696,-1.0751,-1.0762,-1.0747,-1.079,-1.0771,-1.0816,-1.0805,-1.0896,-1.0878,-1.0892,-1.0889,-1.0958,-1.0953,-1.1179,-1.1208,-1.0993,-1.0995,-1.0997,0,-1.0655,-1.0705,-1.0711,-1.0736,-1.0744,-1.0785,-1.0808,-1.0778,-1.0804,-1.0823,-1.0862,-1.0901,-1.0931,-1.1003,-1.0996,-1.1031,-1.1015,-1.1092,-1.102,-1.1029,-1.102,-1.1019,-1.1024,-1.1108,-1.111,-1.1112,-1.1114,0,-1.084,-1.0828,-1.0862,-1.0893,-1.0921,-1.0944,-1.0963,-1.0987,-1.0957,-1.0988,-1.1031,-1.1055,-1.1101,-1.1141,-1.1171,-1.1176,-1.1142,-1.1135,-1.1153,-1.1167,-1.1174,-1.1174,-1.0935,-1.1132,-1.113,-1.1128,-1.1128,-1.1127,-1.0978,-1.102,-1.1031,-1.107,-1.1081,-1.11,-1.1139,-1.1133,-1.1168,-1.1204,-1.1183,-1.1234,-1.1246,-1.1283,-1.1293,-1.1333,-1.1303,-1.1328,-1.1335,-1.1342,-1.1353,-1.1164,-1.1337,-1.1337,-1.1336,-1.1336,-1.1336,0,-1.1163,-1.1167,-1.1203,-1.1231,-1.1262,-1.1224,-1.1243,-1.1272,-1.1317,-1.1331,-1.1361,-1.1411,-1.145,-1.1445,-1.148,-1.1513,-1.1498,-1.1524,-1.1523,-1.1525,-1.1376,-1.1359,-1.1535,-1.1535,-1.1535,-1.1535,-1.1535,-1.1535,-1.1263,-1.1334,-1.1323,-1.1398,-1.1401,-1.1451,-1.1465,-1.1483,-1.1493,-1.1552,-1.1583,-1.1579,-1.1586,-1.162,-1.1654,-1.1651,-1.1668,-1.17,-1.1693,-1.1555,-1.1535,-1.1517,-1.15,-1.1703,-1.1704,-1.1838,-1.1839,-1.184]},{"header":{"parameterUnit":"m.s-1","parameterCategory":1,"la1":30.2991,"la2":30.254,"lo1":-89.0895,"lo2":-89.0444,"dy":0.0017,"dx":0.0017,"nx":28,"ny":28,"refTime":"2024-08-09T03:00:00:Z","depth":0,"parameterNumber":3,"parameterNumberName":"V-component_of_WINDS"},"data":[0,0,0,0,0,0,0,0,0,0,0,0,0,0,0,0,0,0,0,0,0,0,0,0,0,0,0,0,0,0,0,0,0,0,0,0,0,0,0,0,0,0,0,0,0,0,0,0,0,0,0,0,0,0,0,0,0,0,-3.7618,-3.7619,0,-3.7643,-3.7643,-3.7644,-3.7584,-3.7582,-3.758,-3.7578,-3.7604,-3.7606,-3.7609,0,0,0,0,0,0,0,0,0,0,0,0,0,-3.7518,-3.752,-3.7618,-3.7619,-3.7619,-3.7643,-3.7643,-3.7644,-3.7584,-3.7582,-3.7579,-3.7577,-3.7603,-3.7606,-3.7609,0,0,0,0,0,0,0,0,0,0,0,0,0,-3.7554,-3.752,-3.7618,-3.7592,-3.759,-3.7643,-3.7644,-3.7644,-3.7585,-3.7582,-3.7579,-3.7576,-3.7602,-3.7606,-3.7609,-3.7689,0,0,-3.7621,-3.7622,0,0,0,0,0,0,0,0,-3.7552,-3.7558,-3.7596,-3.7594,-3.7592,-3.7607,-3.7617,-3.7659,-3.7585,-3.7587,-3.7578,-3.7575,-3.7607,-3.7611,-3.7622,-3.7691,-3.7692,-3.7621,-3.7623,-3.7625,-3.7626,0,0,0,0,0,0,0,-3.7549,-3.7556,-3.7628,-3.7596,-3.7594,-3.7578,-3.7581,-3.7625,-3.7613,-3.7586,-3.7582,-3.7586,-3.7606,-3.7618,-3.7622,-3.7692,-3.7621,-3.7624,-3.7627,-3.7628,-3.7825,-3.7828,0,0,0,0,0,0,-3.755,-3.7555,-3.7627,-3.7629,-3.7564,-3.7583,-3.7585,-3.7605,-3.7612,-3.761,-3.7588,-3.7583,-3.7613,-3.7617,-3.7622,-3.7715,-3.7625,-3.7628,-3.763,-3.7822,-3.7826,-3.7829,0,0,0,0,0,0,-3.7548,-3.7557,-3.7626,-3.7591,-3.7598,-3.7587,-3.7611,-3.7607,-3.7619,-3.7613,-3.7611,-3.7603,-3.7611,-3.7617,-3.7673,-3.7715,-3.763,-3.7633,-3.7819,-3.7823,-3.7828,-3.7901,0,0,0,0,0,0,-3.7546,-3.7557,-3.7588,-3.7592,-3.76,-3.7677,-3.7613,-3.761,-3.7626,-3.7619,-3.7627,-3.7625,-3.7609,-3.7667,-3.7676,-3.7718,-3.7636,-3.7815,-3.7821,-3.7826,-3.7895,-3.7907,-3.7918,0,0,0,0,0,-3.7542,-3.7608,-3.759,-3.7599,-3.7638,-3.7679,-3.7684,-3.7664,-3.763,-3.766,-3.7656,-3.7625,-3.7709,-3.7674,-3.7683,-3.7727,-3.7812,-3.7819,-3.7826,-3.7889,-3.7905,-3.7918,0,0,0,0,0,0,-3.761,-3.7608,-3.7588,-3.7657,-3.7669,-3.7669,-3.7707,-3.7682,-3.7704,-3.7697,-3.7671,-3.7674,-3.7733,-3.7736,-3.7697,-3.7803,-3.7754,-3.7763,-3.7799,-3.7814,-3.7826,-3.7824,-3.7639,0,0,0,0,0,-3.7633,-3.7667,-3.7663,-3.7724,-3.7731,-3.7718,-3.7735,-3.7719,-3.773,-3.7735,-3.7735,-3.7747,-3.7775,-3.7795,-3.7821,-3.7895,-3.7894,-3.7929,-3.7941,-3.7951,-3.7959,-3.7995,-3.801,-3.7852,-3.7852,-3.7851,0,0,-3.7681,-3.7684,-3.7707,-3.7738,-3.7745,-3.7779,-3.7723,-3.7762,-3.7787,-3.7741,-3.7793,-3.7793,-3.7805,-3.7869,-3.7897,-3.7873,-3.8002,-3.796,-3.7967,-3.797,-3.8004,-3.8019,-3.8032,-3.7856,-3.7855,-3.7855,0,0,-3.7786,-3.7792,-3.7842,-3.785,-3.7862,-3.7852,-3.7864,-3.7868,-3.7866,-3.7918,-3.7883,-3.7912,-3.7963,-3.7972,-3.7983,-3.8089,-3.8061,-3.8098,-3.816,-3.8196,-3.8208,-3.8219,-3.8255,-3.8269,-3.8106,-3.8107,-3.8107,0,-3.7844,-3.7895,-3.7872,-3.7913,-3.7927,-3.7885,-3.7936,-3.7945,-3.7964,-3.7974,-3.7947,-3.8008,-3.8013,-3.8077,-3.8103,-3.8114,-3.8126,-3.8097,-3.8209,-3.8219,-3.8229,-3.8263,-3.8277,-3.8111,-3.8111,-3.811,-3.811,0,-3.7965,-3.8,-3.804,-3.8058,-3.8076,-3.8122,-3.8106,-3.8127,-3.8108,-3.8102,-3.8153,-3.8158,-3.8183,-3.8198,-3.8181,-3.8259,-3.8244,-3.8213,-3.8163,-3.8249,-3.828,-3.8293,-3.8117,-3.8116,-3.8114,-3.8113,0,0,-3.8114,-3.8117,-3.8132,-3.8139,-3.8147,-3.8174,-3.8217,-3.8242,-3.8259,-3.8274,-3.8309,-3.8351,-3.8322,-3.8335,-3.8318,-3.835,-3.8431,-3.8315,-3.8315,-3.8335,-3.8516,-3.8539,-3.8554,-3.8413,-3.8416,-3.8417,-3.8515,0,-3.8216,-3.8289,-3.8269,-3.8342,-3.8373,-3.8334,-3.8371,-3.8379,-3.8374,-3.84,-3.8393,-3.8423,-3.8384,-3.8391,-3.8421,-3.8415,-3.8467,-3.8408,-3.8444,-3.8446,-3.8441,-3.8571,-3.8595,-3.8687,-3.8527,-3.8529,-3.8531,0,-3.8345,-3.8363,-3.8439,-3.844,-3.8452,-3.8486,-3.8505,-3.853,-3.8539,-3.8532,-3.8546,-3.8522,-3.8563,-3.8514,-3.857,-3.853,-3.8543,-3.8543,-3.8546,-3.8548,-3.8493,-3.8575,-3.8716,-3.8729,-3.855,-3.8549,-3.8547,0,-3.8444,-3.8487,-3.8538,-3.8545,-3.8548,-3.8572,-3.8574,-3.858,-3.8595,-3.8612,-3.8621,-3.8643,-3.8655,-3.8672,-3.8655,-3.8621,-3.8713,-3.8662,-3.8708,-3.8708,-3.8728,-3.8727,-3.8872,-3.8739,-3.8739,-3.8739,-3.8738,0,-3.856,-3.8607,-3.8582,-3.8613,-3.8664,-3.864,-3.8692,-3.8689,-3.8694,-3.8724,-3.8691,-3.8719,-3.8695,-3.8721,-3.8707,-3.8754,-3.876,-3.8756,-3.8751,-3.8758,-3.8758,-3.8766,-3.8758,-3.8742,-3.8742,-3.8741,-3.874,0,-3.8679,-3.8664,-3.8716,-3.8713,-3.8714,-3.8752,-3.8749,-3.8777,-3.8769,-3.8806,-3.8813,-3.88,-3.8828,-3.8813,-3.8842,-3.8833,-3.8894,-3.8882,-3.8891,-3.8887,-3.8932,-3.8928,-3.9086,-3.9105,-3.8962,-3.8963,-3.8964,0,-3.8753,-3.8789,-3.8789,-3.8806,-3.881,-3.8838,-3.8852,-3.8829,-3.8846,-3.8857,-3.8883,-3.8908,-3.8927,-3.8974,-3.8967,-3.8989,-3.8976,-3.903,-3.8979,-3.8984,-3.8975,-3.8972,-3.8975,-3.904,-3.9042,-3.9043,-3.9044,0,-3.8886,-3.8876,-3.8898,-3.8917,-3.8935,-3.8949,-3.8961,-3.8976,-3.8953,-3.8973,-3.9001,-3.9016,-3.9045,-3.907,-3.9088,-3.909,-3.9063,-3.906,-3.9072,-3.9078,-3.9081,-3.9078,-3.8917,-3.9057,-3.9055,-3.9055,-3.9054,-3.9053,-3.8984,-3.9013,-3.9017,-3.9042,-3.9047,-3.9058,-3.9083,-3.9077,-3.91,-3.9121,-3.9106,-3.9139,-3.9144,-3.9166,-3.9171,-3.9196,-3.9174,-3.9191,-3.9195,-3.9199,-3.9204,-3.9078,-3.9199,-3.9199,-3.9199,-3.9198,-3.9198,0,-3.9114,-3.9113,-3.9137,-3.9152,-3.9172,-3.9144,-3.9154,-3.9172,-3.9201,-3.9208,-3.9227,-3.9258,-3.9282,-3.9276,-3.9297,-3.9317,-3.9306,-3.9324,-3.9321,-3.9322,-3.9224,-3.9211,-3.9333,-3.9333,-3.9333,-3.9333,-3.9333,-3.9333,-3.9183,-3.9229,-3.9219,-3.9267,-3.9267,-3.9298,-3.9306,-3.9315,-3.932,-3.9356,-3.9375,-3.9371,-3.9372,-3.9392,-3.9412,-3.941,-3.9419,-3.9441,-3.9434,-3.9342,-3.9329,-3.9316,-3.9304,-3.9443,-3.9444,-3.953,-3.953,-3.9531]}]]